Miscellaneous Local Product
Issued by NWS Hastings, NE

Home | Current Version | Previous Version | Graphics & Text | Print | Product List | Glossary On
Versions: 1 2 3 4 5 6 7 8 9 10 11 12 13 14 15 16 17 18 19 20 21 22 23 24 25 26 27 28 29 30 31 32 33 34 35 36 37 38 39 40 41 42 43 44 45 46 47 48 49 50
000
AXUS43 KGID 261902
MISGRI

GID CWA HOURLY WEATHER ROUNDUP
NATIONAL WEATHER SERVICE HASTINGS NE
200 PM CDT FRI AUG 26 2016

NOTE: "FAIR" INDICATES FEW OR NO CLOUDS BELOW 12,000 FEET WITH NO
SIGNIFICANT WEATHER AND/OR OBSTRUCTIONS TO VISIBILITY.

...SOUTH CENTRAL NEBRASKA...

CITY           SKY/WX    TMP DP  RH WIND       PRES   REMARKS
GRAND ISLAND   CLOUDY    72  57  59 SE13      30.11S
HASTINGS       CLOUDY    72  57  59 E9        30.10F
KEARNEY        CLOUDY    72  57  60 E10       30.09F
ORD            CLOUDY    73  52  47 E7        30.10F
YORK           LGT RAIN  70  61  73 E12       30.10F
AURORA         CLOUDY    71  61  71 E8        30.09F
LEXINGTON      CLOUDY    71  55  56 E7        30.11F
HOLDREGE       CLOUDY    69  57  64 E8        30.10F
HEBRON         CLOUDY    66  64  93 E5        30.09R

...NEBRASKA PANHANDLE...

CITY           SKY/WX    TMP DP  RH WIND       PRES   REMARKS
CHADRON        CLOUDY    67  54  63 S7        30.08F
ALLIANCE       CLOUDY    61  55  81 S12       30.12F
SCOTTSBLUFF    PTSUNNY   70  57  63 E10G23    30.10F
SIDNEY         CLOUDY    61  54  77 E5        30.14F

...WESTERN AND NORTH CENTRAL NEBRASKA...

CITY           SKY/WX    TMP DP  RH WIND       PRES   REMARKS
VALENTINE      CLOUDY    69  51  52 SW5       30.14R
AINSWORTH      MOSUNNY   71  53  53 SE6       30.12F
ONEILL         CLOUDY    74  50  42 SE6       30.13S
BROKEN BOW     CLOUDY    70  55  59 SE8       30.12S
IMPERIAL       LGT RAIN  70  54  56 SW5       30.10F
NORTH PLATTE   MOSUNNY   77  56  48 E15       30.09F
MCCOOK         PTSUNNY   73  54  51 VRB7      30.09F

...EASTERN NEBRASKA...

CITY           SKY/WX    TMP DP  RH WIND       PRES   REMARKS
NORFOLK        CLOUDY    71  58  63 E10G18    30.12S
SO SIOUX CITY  CLOUDY    72  61  68 SE6       30.12F
TEKAMAH        CLOUDY    70  62  76 SE13      30.13R
COLUMBUS       CLOUDY    72  57  60 SE12      30.11F
ALBION         CLOUDY    71  58  64 SE9       30.12S
OMAHA EPPLEY   LGT RAIN  68  61  78 SE7       30.12F
OFFUTT AFB     CLOUDY    69  62  81 NE5       30.11F
MILLARD        DRIZZLE   67  61  80 E6        30.11F
LINCOLN        CLOUDY    68  61  77 E10       30.11F
NEBRASKA CITY  CLOUDY    68  64  87 SE8       30.10F
BEATRICE       CLOUDY    68  64  89 SE10      30.09S
FALLS CITY     CLOUDY    70  67  90 E6        30.08F

...NORTHERN KANSAS...

CITY           SKY/WX    TMP DP  RH WIND       PRES   REMARKS
GOODLAND       CLOUDY    72  56  57 SE9       30.10F
HILL CITY      CLOUDY    72  61  68 VRB5      30.10S
NORTON         CLEAR     73  54  49 E7        30.08F
SMITH CENTER   CLOUDY    72  61  68 E8        30.08F
BELOIT         CLOUDY    68  63  83 E7        30.06S
HAYS           CLOUDY    70  57  64 E6        30.09F
RUSSELL        CLOUDY    68  64  87 S7        30.08F
CONCORDIA      CLOUDY    68  65  90 S7        30.08F
SALINA         PTSUNNY   76  66  71 SW5       30.07F
TOPEKA         CLOUDY    79  70  74 SE8       30.05F



USA.gov is the U.S. government's official web portal to all federal, state and local government web resources and services.